Total_Precipitation_Accumulation
1.16 1.16 1.14 1.12 0.93 0.88 0.88 0.86 0.80 0.74 0.70 0.69 0.69 0.67 0.64 0.63 0.64 0.60 0.54 0.53 0.55 0.53 0.50 0.49 0.46 0.44 0.41 0.39 0.40 0.40 0.39 0.36 0.46 0.49 0.47 0.40 0.36 0.33 0.31 0.28 0.26 0.23 0.21 0.18 0.17 0.15 0.13 0.09 0.08 0.08 0.08 0.06 0.05 0.04 0.04 0.04 0.06 0.08 0.08 0.09 0.05 0.05 0.06 0.07 0.06 0.04 0.02 0.00 0.01
1.43 1.40 1.33 1.22 1.17 1.14 1.12 1.09 1.03 0.97 0.92 0.88 0.88 0.85 0.81 0.78 0.76 0.72 0.68 0.65 0.64 0.61 0.60 0.63 0.61 0.60 0.59 0.56 0.56 0.57 0.62 0.72 0.69 0.66 0.59 0.47 0.44 0.41 0.39 0.37 0.34 0.31 0.28 0.26 0.24 0.22 0.20 0.16 0.16 0.14 0.12 0.09 0.08 0.08 0.08 0.06 0.07 0.08 0.09 0.08 0.06 0.07 0.08 0.10 0.07 0.05 0.03 0.01 0.01
1.43 1.32 1.23 1.21 1.23 1.22 1.20 1.18 1.14 1.14 1.15 1.16 1.12 1.07 1.02 1.01 0.97 0.92 0.88 0.84 0.82 0.83 0.85 0.88 0.84 0.83 0.84 0.84 0.82 0.95 1.08 1.04 0.97 0.93 0.87 0.76 0.69 0.63 0.58 0.55 0.53 0.49 0.44 0.41 0.37 0.33 0.29 0.24 0.31 0.30 0.24 0.18 0.14 0.13 0.11 0.07 0.07 0.09 0.09 0.08 0.07 0.08 0.09 0.08 0.06 0.04 0.03 0.02 0.01
1.37 1.23 1.17 1.20 1.24 1.26 1.23 1.17 1.11 1.12 1.19 1.26 1.23 1.19 1.17 1.19 1.15 1.10 1.06 1.08 1.07 1.13 1.20 1.23 1.24 1.25 1.26 1.24 1.46 1.54 1.53 1.48 1.44 1.42 1.39 1.35 1.23 1.14 1.07 1.01 0.95 0.90 0.83 0.70 0.64 0.58 0.56 0.61 0.56 0.48 0.40 0.34 0.28 0.23 0.18 0.11 0.08 0.08 0.09 0.09 0.08 0.08 0.08 0.06 0.05 0.04 0.03 0.02 0.01
1.20 1.19 1.23 1.33 1.37 1.40 1.40 1.34 1.32 1.26 1.18 1.12 1.07 1.04 1.00 0.96 0.98 1.01 1.05 1.09 1.13 1.13 1.13 1.17 1.25 1.33 1.33 1.18 1.28 1.40 1.50 1.54 1.58 1.64 1.69 1.72 1.67 1.61 1.54 1.47 1.43 1.36 1.24 1.04 0.95 0.86 0.83 0.92 0.82 0.69 0.56 0.47 0.43 0.37 0.30 0.21 0.12 0.09 0.10 0.10 0.10 0.10 0.10 0.09 0.06 0.03 0.02 0.01 0.00
1.19 1.24 1.37 1.55 1.59 1.62 1.61 1.52 1.47 1.36 1.24 1.17 1.07 0.97 0.88 0.79 0.76 0.79 0.83 0.88 0.87 0.86 0.86 0.90 0.95 0.93 0.89 0.92 0.95 1.00 1.07 1.14 1.17 1.23 1.30 1.40 1.47 1.51 1.54 1.57 1.55 1.55 1.53 1.48 1.31 1.27 1.28 1.24 1.18 1.10 0.96 0.73 0.63 0.52 0.41 0.33 0.26 0.19 0.14 0.18 0.14 0.12 0.12 0.12 0.07 0.04 0.02 0.01 0.00
0.72 0.85 1.02 1.19 1.19 1.15 1.10 1.05 1.11 1.15 1.18 1.16 1.09 1.00 0.91 0.85 0.78 0.76 0.77 0.81 0.82 0.81 0.79 0.79 0.81 0.83 0.82 0.80 0.77 0.75 0.76 0.80 0.81 0.82 0.84 0.86 0.90 0.98 1.05 1.08 1.11 1.15 1.19 1.24 1.30 1.18 1.06 1.09 1.14 1.16 1.11 0.97 0.88 0.78 0.68 0.58 0.48 0.54 0.56 0.35 0.24 0.18 0.14 0.12 0.10 0.06 0.03 0.01 0.01
0.05 0.08 0.16 0.34 0.46 0.54 0.61 0.66 0.71 0.76 0.78 0.78 0.78 0.76 0.74 0.75 0.78 0.78 0.76 0.73 0.69 0.59 0.51 0.52 0.57 0.62 0.65 0.67 0.65 0.63 0.62 0.62 0.62 0.61 0.60 0.60 0.59 0.63 0.68 0.71 0.73 0.76 0.79 0.82 0.92 0.83 0.72 0.76 0.82 0.87 0.91 0.91 0.92 0.91 0.86 0.80 0.73 0.73 0.72 0.61 0.49 0.38 0.27 0.19 0.13 0.08 0.05 0.03 0.02
0.01 0.01 0.03 0.09 0.14 0.17 0.20 0.21 0.25 0.30 0.33 0.33 0.35 0.39 0.43 0.46 0.53 0.54 0.54 0.55 0.39 0.34 0.35 0.36 0.36 0.38 0.40 0.42 0.43 0.44 0.45 0.46 0.47 0.47 0.46 0.45 0.44 0.46 0.49 0.51 0.54 0.55 0.56 0.59 0.51 0.50 0.53 0.56 0.60 0.62 0.64 0.65 0.70 0.72 0.72 0.72 0.72 0.66 0.62 0.64 0.60 0.54 0.47 0.40 0.31 0.21 0.17 0.23 0.13
0.01 0.00 0.01 0.01 0.03 0.04 0.07 0.12 0.15 0.15 0.16 0.18 0.21 0.23 0.26 0.27 0.27 0.29 0.31 0.33 0.34 0.32 0.30 0.29 0.32 0.34 0.35 0.36 0.36 0.37 0.38 0.38 0.37 0.37 0.37 0.36 0.34 0.34 0.33 0.33 0.35 0.38 0.41 0.42 0.34 0.35 0.39 0.43 0.47 0.49 0.51 0.52 0.52 0.53 0.53 0.53 0.46 0.44 0.46 0.48 0.50 0.50 0.49 0.45 0.40 0.35 0.30 0.28 0.25
0.00 0.00 0.00 0.00 0.00 0.01 0.02 0.03 0.04 0.05 0.06 0.07 0.07 0.08 0.08 0.08 0.12 0.16 0.20 0.24 0.26 0.28 0.29 0.31 0.36 0.39 0.40 0.40 0.40 0.40 0.40 0.40 0.34 0.30 0.28 0.26 0.25 0.23 0.22 0.21 0.21 0.22 0.21 0.13 0.15 0.18 0.23 0.31 0.34 0.37 0.39 0.41 0.43 0.44 0.44 0.42 0.40 0.40 0.41 0.41 0.40 0.40 0.41 0.39 0.37 0.34 0.31 0.28 0.26
0.00 0.00 0.00 0.00 0.01 0.01 0.01 0.02 0.02 0.03 0.03 0.03 0.03 0.03 0.04 0.04 0.04 0.07 0.10 0.14 0.16 0.18 0.20 0.21 0.25 0.28 0.31 0.32 0.32 0.31 0.30 0.29 0.24 0.22 0.20 0.18 0.16 0.14 0.13 0.12 0.11 0.11 0.10 0.07 0.08 0.09 0.12 0.17 0.22 0.25 0.28 0.31 0.33 0.36 0.37 0.35 0.33 0.34 0.35 0.35 0.35 0.35 0.34 0.33 0.31 0.30 0.28 0.25 0.24
0.00 0.00 0.00 0.01 0.01 0.01 0.01 0.01 0.02 0.02 0.02 0.02 0.02 0.02 0.02 0.02 0.02 0.04 0.06 0.08 0.10 0.11 0.12 0.13 0.14 0.16 0.17 0.19 0.18 0.17 0.16 0.15 0.13 0.12 0.12 0.12 0.11 0.10 0.09 0.08 0.08 0.08 0.07 0.07 0.06 0.06 0.06 0.07 0.10 0.14 0.17 0.20 0.23 0.26 0.27 0.21 0.24 0.27 0.28 0.29 0.29 0.29 0.29 0.30 0.27 0.25 0.22 0.23 0.23
0.00 0.00 0.00 0.01 0.01 0.01 0.01 0.01 0.02 0.02 0.03 0.03 0.02 0.02 0.02 0.02 0.02 0.03 0.05 0.06 0.08 0.09 0.10 0.12 0.12 0.11 0.10 0.10 0.10 0.10 0.09 0.08 0.08 0.08 0.08 0.08 0.08 0.08 0.07 0.07 0.07 0.06 0.06 0.06 0.06 0.05 0.05 0.04 0.04 0.06 0.08 0.10 0.13 0.16 0.16 0.13 0.15 0.19 0.22 0.23 0.24 0.24 0.24 0.24 0.23 0.21 0.20 0.20 0.20
0.00 0.00 0.01 0.01 0.01 0.01 0.01 0.01 0.02 0.03 0.04 0.04 0.04 0.03 0.03 0.03 0.03 0.03 0.05 0.07 0.08 0.10 0.11 0.13 0.15 0.14 0.11 0.09 0.08 0.07 0.06 0.06 0.06 0.07 0.07 0.06 0.06 0.05 0.05 0.05 0.04 0.04 0.04 0.04 0.04 0.03 0.03 0.03 0.03 0.03 0.03 0.04 0.06 0.07 0.08 0.06 0.08 0.11 0.15 0.17 0.18 0.19 0.20 0.20 0.20 0.18 0.17 0.17 0.17
0.00 0.00 0.01 0.02 0.02 0.02 0.02 0.03 0.03 0.05 0.06 0.06 0.06 0.06 0.05 0.05 0.05 0.05 0.07 0.08 0.10 0.12 0.13 0.15 0.16 0.17 0.17 0.15 0.12 0.10 0.09 0.08 0.07 0.07 0.06 0.06 0.04 0.04 0.03 0.02 0.02 0.02 0.02 0.02 0.02 0.02 0.02 0.01 0.01 0.01 0.02 0.02 0.03 0.02 0.02 0.03 0.04 0.05 0.07 0.10 0.12 0.14 0.15 0.16 0.16 0.15 0.15 0.15 0.16
0.01 0.01 0.01 0.02 0.03 0.04 0.04 0.05 0.05 0.07 0.08 0.08 0.08 0.08 0.08 0.07 0.07 0.08 0.08 0.09 0.11 0.12 0.14 0.15 0.17 0.19 0.20 0.20 0.17 0.15 0.13 0.12 0.10 0.08 0.07 0.05 0.04 0.03 0.02 0.02 0.02 0.01 0.01 0.01 0.01 0.01 0.01 0.01 0.01 0.01 0.01 0.01 0.01 0.01 0.01 0.01 0.02 0.02 0.03 0.04 0.06 0.08 0.10 0.12 0.10 0.10 0.11 0.12 0.13
0.02 0.02 0.02 0.02 0.03 0.05 0.06 0.06 0.07 0.09 0.10 0.11 0.11 0.11 0.11 0.10 0.10 0.10 0.10 0.10 0.11 0.12 0.13 0.15 0.17 0.19 0.20 0.20 0.19 0.18 0.16 0.14 0.13 0.11 0.08 0.04 0.03 0.03 0.02 0.02 0.01 0.01 0.01 0.01 0.01 0.01 0.01 0.01 0.01 0.01 0.01 0.01 0.01 0.01 0.01 0.01 0.01 0.01 0.01 0.02 0.02 0.04 0.05 0.07 0.06 0.06 0.08 0.09 0.10
0.04 0.04 0.04 0.03 0.03 0.04 0.05 0.06 0.07 0.09 0.12 0.14 0.15 0.16 0.16 0.14 0.14 0.14 0.13 0.13 0.13 0.13 0.14 0.15 0.17 0.19 0.20 0.19 0.19 0.18 0.17 0.15 0.14 0.12 0.10 0.07 0.06 0.06 0.05 0.03 0.02 0.02 0.01 0.01 0.01 0.01 0.01 0.01 0.01 0.01 0.01 0.01 0.01 0.01 0.01 0.01 0.01 0.01 0.01 0.01 0.01 0.01 0.02 0.03 0.02 0.03 0.04 0.05 0.06
0.04 0.06 0.07 0.06 0.05 0.05 0.06 0.07 0.08 0.10 0.14 0.17 0.20 0.22 0.22 0.21 0.20 0.19 0.18 0.17 0.17 0.18 0.19 0.18 0.17 0.18 0.19 0.21 0.20 0.19 0.18 0.16 0.14 0.13 0.12 0.11 0.10 0.09 0.08 0.06 0.05 0.03 0.02 0.02 0.01 0.01 0.01 0.01 0.01 0.01 0.01 0.01 0.01 0.01 0.01 0.01 0.01 0.01 0.01 0.01 0.01 0.01 0.01 0.01 0.01 0.01 0.01 0.02 0.03
0.07 0.08 0.08 0.09 0.10 0.10 0.09 0.09 0.09 0.11 0.14 0.16 0.19 0.22 0.25 0.27 0.26 0.26 0.25 0.25 0.26 0.28 0.28 0.27 0.24 0.22 0.21 0.22 0.23 0.23 0.21 0.18 0.16 0.14 0.13 0.13 0.13 0.12 0.11 0.10 0.08 0.06 0.04 0.02 0.02 0.01 0.01 0.01 0.01 0.01 0.01 0.01 0.01 0.01 0.01 0.01 0.01 0.01 0.01 0.01 0.01 0.01 0.01 0.01 0.01 0.01 0.01 0.01 0.01
0.05 0.07 0.08 0.12 0.15 0.17 0.18 0.17 0.16 0.16 0.16 0.15 0.17 0.19 0.23 0.27 0.29 0.29 0.31 0.37 0.38 0.39 0.40 0.40 0.36 0.32 0.27 0.24 0.25 0.26 0.25 0.22 0.19 0.19 0.19 0.17 0.15 0.14 0.13 0.12 0.10 0.08 0.05 0.03 0.02 0.01 0.01 0.01 0.01 0.01 0.01 0.01 0.01 0.01 0.01 0.01 0.01 0.01 0.02 0.01 0.01 0.01 0.01 0.01 0.01 0.01 0.01 0.01 0.00
0.02 0.03 0.04 0.07 0.10 0.13 0.17 0.19 0.23 0.24 0.23 0.22 0.21 0.21 0.23 0.25 0.28 0.32 0.37 0.44 0.46 0.48 0.49 0.51 0.52 0.48 0.41 0.34 0.33 0.32 0.32 0.29 0.34 0.33 0.28 0.24 0.21 0.19 0.16 0.14 0.11 0.09 0.06 0.03 0.02 0.01 0.01 0.01 0.01 0.01 0.01 0.01 0.01 0.01 0.01 0.01 0.01 0.01 0.01 0.01 0.01 0.01 0.01 0.01 0.01 0.01 0.01 0.01 0.00
0.02 0.02 0.02 0.03 0.04 0.06 0.09 0.14 0.20 0.24 0.26 0.26 0.25 0.25 0.26 0.27 0.31 0.37 0.43 0.46 0.49 0.51 0.54 0.60 0.64 0.64 0.60 0.51 0.46 0.43 0.42 0.43 0.46 0.43 0.37 0.32 0.28 0.25 0.21 0.16 0.12 0.09 0.06 0.03 0.02 0.01 0.01 0.01 0.01 0.01 0.01 0.01 0.01 0.01 0.01 0.01 0.01 0.01 0.01 0.01 0.01 0.01 0.00 0.00 0.00 0.00 0.00 0.00 0.00
0.03 0.03 0.03 0.03 0.03 0.03 0.05 0.07 0.13 0.16 0.18 0.19 0.21 0.24 0.27 0.31 0.36 0.42 0.48 0.55 0.56 0.57 0.60 0.63 0.66 0.69 0.71 0.68 0.63 0.62 0.61 0.56 0.50 0.46 0.43 0.40 0.36 0.31 0.26 0.22 0.15 0.11 0.07 0.03 0.02 0.01 0.01 0.01 0.01 0.01 0.00 0.00 0.00 0.00 0.01 0.01 0.01 0.01 0.01 0.01 0.01 0.00 0.00 0.00 0.00 0.00 0.00 0.00 0.00
0.03 0.04 0.04 0.04 0.04 0.04 0.04 0.04 0.08 0.10 0.11 0.13 0.15 0.19 0.23 0.28 0.34 0.40 0.47 0.59 0.66 0.68 0.69 0.69 0.72 0.73 0.75 0.77 0.79 0.79 0.77 0.71 0.63 0.56 0.50 0.46 0.42 0.37 0.32 0.27 0.19 0.13 0.08 0.04 0.02 0.01 0.01 0.00 0.00 0.00 0.00 0.00 0.00 0.00 0.00 0.00 0.00 0.00 0.00 0.00 0.00 0.00 0.00 0.00 0.00 0.00 0.00 0.00 0.00
0.05 0.05 0.05 0.05 0.05 0.05 0.05 0.04 0.04 0.07 0.09 0.11 0.13 0.15 0.19 0.22 0.29 0.34 0.41 0.52 0.65 0.74 0.80 0.83 0.84 0.83 0.86 0.95 0.91 0.88 0.85 0.79 0.74 0.65 0.54 0.46 0.44 0.41 0.37 0.31 0.26 0.18 0.10 0.05 0.03 0.02 0.01 0.01 0.01 0.01 0.00 0.00 0.00 0.00 0.00 0.00 0.00 0.00 0.00 0.00 0.00 0.00 0.00 0.00 0.00 0.00 0.00 0.00 0.00
0.07 0.07 0.06 0.06 0.06 0.06 0.05 0.05 0.04 0.06 0.08 0.10 0.11 0.13 0.17 0.22 0.27 0.30 0.33 0.35 0.51 0.69 0.82 0.88 0.91 0.95 1.01 1.10 1.00 0.92 0.87 0.86 0.82 0.73 0.62 0.49 0.45 0.42 0.39 0.34 0.28 0.22 0.15 0.05 0.03 0.03 0.03 0.04 0.03 0.02 0.01 0.00 0.00 0.00 0.00 0.00 0.00 0.00 0.00 0.00 0.00 0.00 0.00 0.00 0.00 0.00 0.00 0.00 0.00
0.07 0.07 0.07 0.07 0.07 0.06 0.06 0.05 0.05 0.04 0.05 0.08 0.12 0.14 0.17 0.21 0.26 0.30 0.32 0.33 0.45 0.59 0.72 0.83 0.80 0.90 1.00 1.00 0.98 0.95 0.92 0.92 0.90 0.82 0.69 0.55 0.48 0.44 0.41 0.35 0.27 0.19 0.13 0.06 0.06 0.06 0.06 0.05 0.03 0.02 0.01 0.00 0.00 0.00 0.00 0.00 0.00 0.00 0.00 0.00 0.00 0.00 0.00 0.00 0.00 0.00 0.00 0.00 0.00
0.10 0.10 0.09 0.09 0.08 0.07 0.06 0.06 0.05 0.05 0.05 0.07 0.13 0.18 0.22 0.25 0.28 0.30 0.32 0.34 0.43 0.45 0.46 0.51 0.63 0.78 0.91 0.98 0.96 0.97 0.99 1.00 0.97 0.88 0.75 0.62 0.53 0.46 0.41 0.34 0.25 0.17 0.11 0.08 0.08 0.09 0.08 0.05 0.03 0.02 0.01 0.00 0.00 0.00 0.00 0.00 0.00 0.00 0.00 0.00 0.00 0.00 0.00 0.00 0.00 0.00 0.00 0.00 0.00
0.13 0.13 0.12 0.12 0.09 0.08 0.07 0.06 0.05 0.06 0.08 0.11 0.16 0.21 0.24 0.26 0.29 0.29 0.28 0.27 0.37 0.44 0.49 0.52 0.57 0.68 0.80 0.93 0.96 0.96 0.94 0.91 0.93 0.86 0.73 0.61 0.52 0.45 0.38 0.29 0.20 0.13 0.10 0.10 0.11 0.10 0.08 0.05 0.03 0.01 0.01 0.00 0.00 0.00 0.00 0.00 0.00 0.00 0.00 0.00 0.00 0.00 0.00 0.00 0.00 0.00 0.00 0.00 0.00
0.15 0.16 0.16 0.15 0.13 0.11 0.10 0.09 0.07 0.08 0.09 0.12 0.15 0.19 0.23 0.26 0.28 0.29 0.28 0.26 0.38 0.48 0.54 0.56 0.58 0.64 0.74 0.87 0.93 0.95 0.93 0.87 0.86 0.79 0.67 0.57 0.49 0.41 0.34 0.25 0.18 0.13 0.11 0.12 0.14 0.13 0.09 0.03 0.02 0.01 0.01 0.00 0.00 0.00 0.00 0.00 0.00 0.00 0.00 0.00 0.00 0.00 0.00 0.00 0.00 0.00 0.00 0.00 0.00
0.21 0.21 0.20 0.19 0.17 0.15 0.13 0.12 0.11 0.11 0.12 0.11 0.11 0.12 0.15 0.19 0.25 0.30 0.33 0.33 0.34 0.41 0.49 0.52 0.54 0.57 0.64 0.73 0.83 0.91 0.93 0.85 0.76 0.68 0.61 0.52 0.44 0.37 0.30 0.22 0.18 0.16 0.15 0.16 0.14 0.11 0.07 0.03 0.02 0.01 0.01 0.00 0.00 0.00 0.00 0.00 0.00 0.00 0.00 0.00 0.00 0.00 0.00 0.00 0.00 0.00 0.00 0.00 0.00
0.18 0.24 0.28 0.28 0.24 0.21 0.19 0.17 0.14 0.13 0.14 0.13 0.12 0.11 0.11 0.14 0.22 0.29 0.35 0.36 0.34 0.38 0.44 0.48 0.50 0.50 0.52 0.57 0.68 0.81 0.90 0.88 0.76 0.68 0.61 0.50 0.40 0.32 0.25 0.21 0.18 0.18 0.18 0.17 0.13 0.09 0.05 0.03 0.01 0.01 0.00 0.00 0.00 0.00 0.00 0.00 0.00 0.00 0.00 0.00 0.00 0.00 0.00 0.00 0.00 0.00 0.00 0.00 0.00
0.07 0.12 0.17 0.23 0.28 0.30 0.28 0.24 0.19 0.17 0.17 0.16 0.15 0.13 0.12 0.12 0.16 0.22 0.28 0.33 0.34 0.41 0.48 0.51 0.54 0.54 0.54 0.55 0.62 0.75 0.87 0.90 0.81 0.71 0.61 0.54 0.37 0.27 0.22 0.19 0.19 0.19 0.17 0.14 0.10 0.06 0.03 0.02 0.01 0.00 0.00 0.00 0.00 0.00 0.00 0.00 0.00 0.00 0.00 0.00 0.00 0.00 0.00 0.00 0.00 0.00 0.00 0.00 0.00
0.03 0.04 0.07 0.10 0.15 0.22 0.29 0.33 0.26 0.23 0.21 0.18 0.17 0.17 0.16 0.15 0.15 0.18 0.23 0.29 0.35 0.44 0.53 0.60 0.64 0.65 0.64 0.64 0.65 0.73 0.81 0.85 0.79 0.71 0.62 0.53 0.37 0.26 0.20 0.18 0.18 0.17 0.14 0.11 0.08 0.05 0.02 0.01 0.01 0.00 0.00 0.00 0.00 0.00 0.00 0.00 0.00 0.00 0.00 0.00 0.00 0.00 0.00 0.00 0.00 0.00 0.00 0.00 0.00
0.02 0.03 0.03 0.04 0.06 0.10 0.17 0.28 0.26 0.24 0.22 0.20 0.20 0.22 0.23 0.22 0.21 0.21 0.23 0.30 0.38 0.42 0.46 0.59 0.65 0.66 0.66 0.66 0.65 0.66 0.69 0.74 0.73 0.70 0.64 0.54 0.43 0.31 0.21 0.18 0.16 0.14 0.10 0.08 0.05 0.03 0.02 0.01 0.00 0.00 0.00 0.00 0.00 0.00 0.00 0.00 0.00 0.00 0.00 0.00 0.00 0.00 0.00 0.00 0.00 0.00 0.00 0.00 0.00
0.02 0.02 0.03 0.03 0.04 0.05 0.09 0.18 0.21 0.21 0.19 0.19 0.22 0.25 0.28 0.31 0.29 0.27 0.27 0.32 0.37 0.38 0.40 0.50 0.58 0.61 0.63 0.65 0.66 0.65 0.64 0.67 0.70 0.68 0.63 0.55 0.44 0.34 0.26 0.19 0.13 0.10 0.08 0.06 0.04 0.02 0.01 0.00 0.00 0.00 0.00 0.00 0.00 0.00 0.00 0.00 0.00 0.00 0.00 0.00 0.00 0.00 0.00 0.00 0.00 0.00 0.00 0.00 0.00
0.01 0.02 0.02 0.03 0.03 0.03 0.05 0.10 0.12 0.14 0.16 0.16 0.19 0.23 0.29 0.35 0.34 0.31 0.30 0.31 0.33 0.33 0.34 0.39 0.52 0.61 0.67 0.71 0.73 0.72 0.70 0.66 0.68 0.66 0.61 0.54 0.43 0.35 0.28 0.24 0.13 0.08 0.06 0.05 0.03 0.02 0.01 0.00 0.00 0.00 0.00 0.00 0.00 0.00 0.00 0.00 0.00 0.00 0.00 0.00 0.00 0.00 0.00 0.00 0.00 0.00 0.00 0.00 0.00
0.01 0.02 0.02 0.02 0.02 0.02 0.04 0.06 0.07 0.09 0.12 0.14 0.16 0.19 0.24 0.31 0.33 0.33 0.31 0.30 0.33 0.34 0.34 0.33 0.50 0.63 0.71 0.74 0.75 0.75 0.73 0.68 0.67 0.65 0.61 0.52 0.43 0.36 0.31 0.26 0.16 0.09 0.06 0.05 0.03 0.01 0.00 0.00 0.00 0.00 0.00 0.00 0.00 0.00 0.00 0.00 0.00 0.00 0.00 0.00 0.00 0.00 0.00 0.00 0.00 0.00 0.00 0.00 0.00
0.02 0.02 0.02 0.02 0.02 0.02 0.02 0.03 0.04 0.07 0.09 0.12 0.13 0.15 0.19 0.24 0.32 0.34 0.33 0.32 0.36 0.39 0.41 0.42 0.53 0.64 0.72 0.74 0.71 0.69 0.69 0.70 0.66 0.63 0.59 0.52 0.43 0.37 0.31 0.24 0.18 0.12 0.08 0.06 0.03 0.01 0.00 0.00 0.00 0.00 0.00 0.00 0.00 0.00 0.00 0.00 0.00 0.00 0.00 0.00 0.00 0.00 0.00 0.00 0.00 0.00 0.00 0.00 0.00